COSMOS 1045

Satellite information

Favourite Embed

Satellite Type and Status

PAYLOADIN ORBIT

Key statistics

Satellite COSMOS 1045 at a glance.

Uptime

17118

Days in orbit

Revolutions

≈ 12.0

Per day

Orbit

LEO

Low Earth Orbit

Inclination

82.6

Latest

Satellite identification and parameters

Extended collection of information and parameters for COSMOS 1045.

Object identification

Identified? True

Debris? False

Object name: COSMOS 1045

International designator: 1978-100A

Object number (NORAD): 11084

Object ID (CCSDS): 11084

Country: COMMONWEALTH OF INDEPENDENT STATES (CIS)

Current information (Y/N): Y

RCS size: LARGE

Orbital parameters

Period: 120.324 minutes

Inclination: 82.55 deg

SMA: 8073.497 km

Apoapsis: 1705.305 km

Periapsis: 1685.418 km

RAAN: 202.2791 deg

Eccentricy: 0.00123161

Argument of periapsis: 169.5049 deg

Mean anomaly: 251.1372 deg

Mean motion: 11.96768818 rev/day

Mean motion (dot): -0.00000047 rev/day2

B* drag term: -0.00071266946 1/REarth

Two-line elements (TLE)

Creation date: Sept. 7, 2025, 3:09 a.m.

Reference frame: TEME

Reference center: EARTH

Epoch: Sept. 6, 2025, 11:01 p.m. UTC

TLE line 0: 0 COSMOS 1045

TLE line 1: 1 11084U 78100A 25249.95965097 -.00000047 00000-0 -71267-3 0 9991

TLE line 2: 2 11084 82.5500 202.2791 0012316 169.5049 251.1372 11.96768818 47384

Live tracking on map

Real-time ground track for satellite COSMOS 1045.

In-orbit conjunctions

A list of the most updated potential collisions computed for object COSMOS 1045.

Target Orbit TCA Probability of collision Miss distance Type
RADIO 2 LEO 2025-07-22 19:42:04 0.0002050582 320.0 (m) PAYLOAD
RADIO 2 LEO 2025-07-22 17:41:42 0.0001684747 375.0 (m) PAYLOAD

Associated space launch

Mass model of the Meteor-2 meteorological satellite

COSMOS 1045 was lifted into orbit during the mission ‘Tsiklon-3 | Meteor-2-GVM’, on board a Tsiklon-3 space rocket.

The launch took place on Oct. 26, 1978, 7 a.m. from 32/2.

For more information about the launch, click the button.

Launch to space Tsiklon-3 | Meteor-2-GVM
Tsiklon-3 | Meteor-2-GVM

Agency: N/A

Status: Launch Successful

Launch date: Oct. 26, 1978, 7 a.m. UTC

Rocket: Tsiklon-3

Launch pad: 32/2

Location: Plesetsk Cosmodrome, Russian Federation

...

Latest news about this satellite

There are no fresh news available about this satellite. Check back as we update our databases every day.


Newsletter sign-up

Weekly statistics, charts and insights to help you stay on top of the space industry.